Showing default

TANSAT, 41898

Orbit data source: Space-Track

TANSAT, 41898 is a Chinese payload satellite in SSO that was launched on Wed, 21 Dec 2016 UTC via a CHANG ZHENG 2D launch vehicle from the Jiuquan Satellite Launch Center, China (JSC). Payload-class satellites include a variety of spacecraft equipped with specific instruments for various scientific and technological missions. These include communications satellites like Starlink; space stations such as the ISS; scientific satellites like the Hubble; Earth observation satellites from companies like Planet Labs, Umbra, and HawkEye 360; GPS; miniature CubeSats for education and research; and military/defense satellites.

Loading next visibility...
Identifier
41898, 2016-081A
Orbit
SSO
Country
Flag of CNCN / PRC
Related business
Manufacturer
SECM
Mission
Operational Civil Earth Obs Sci
Bus & Motor
TANSAT, Unknown motor
Mass
~620 kg wet, ~600 kg dry
Launch date (UTC)
2016-12-21 (10 years ago)
Launch vehicle
CHANG ZHENG 2D
Launch site
Jiuquan Satellite Launch Center, China (JSC)
Object type
Payload
Rocket body
Debris
Shape & HBR
Box + 2 Pan, 5.0 m
Radar Cross Section
7.261 m², Large (>1 m²)

Expand to show TLE details & history
Last TLE update: 23 hours ago

TLE from 23 hours ago
0 TANSAT
1 41898U 16081A   26172.49769418  .00000397  00000-0  93147-4 0  9999
2 41898  98.5366 172.8832 0019340 298.3019  61.6229 14.59954335505250
Epoch: 2026-06-21T11:56Z
TLE epoch observation values (Epoch: 2026-06-21T11:56:40.777Z)
Latitude
0.00004°
Longitude
84.01618°
Altitude
689.815 km
Speed
7.515 km/s
True Right ascension
11h 31m 31s
True Declination
0° 00' 00"
Sunlit
Object was in daylight at epoch
Visualization orbit readout
Latitude
Unknown
Longitude
Unknown
Altitude
Unknown
Speed
Unknown
Apparent Right ascension
Unknown
Apparent Declination
Unknown
Sunlit
N/A
Visualization observer readout
Local Sidereal Time
21:38:26
Azimuth
Unknown
Elevation
Unknown
Doppler factor
Unknown
Orbital elements
Apogee altitude
704.089 km
Perigee altitude
676.748 km
Semi-major axis
7,068.555 km
Eccentricity
0.00193
Inclination
98.5366°
RAAN
172.8832°
Arg. of periapsis
298.3019°
True anomaly
61.81811°
Mean anomaly
61.6229°
Eccentric anomaly
61.72048°
Mean motion
3.65214 °/min
Orbital period
98.57 mins
BSTAR
0.000093147
Loading maneuver chart data...
Computing Atmospheric mass density...
Loading historical data...
Loading historical data...
Loading historical data...
Loading historical data...
Loading historical data...
Loading historical data...
Loading historical data...
Other satellites on launch #81 in the year 2016 (2016-12-21 UTC)

Documentation

Showing up to 5 results
|